カタログに戻る

COSMOS 841

運用中軍事LEO
NORAD 9022·PAYLOAD·🇷🇺 Russia

打ち上げ Jul 15, 1976 から Plesetsk Cosmodrome

Loading…

次のパス (今後24時間)

TLE

最新Source: Space-Track

元期: Sep 14, 2026, 15:24 UTC

1 09022U 76069A   26257.64224875  .00000100  00000-0  42820-4 0  9992
2 09022  74.0430 136.6484 0013281 201.9807 158.0778 14.36851299625228

AllMySatでCOSMOS 841をリアルタイム追跡

Download on the App Store